860925 691 (3.1+  4.3-)   970201 355  0.2+  0.6+    970714 696  1.5-  0.8-  

860925 691 (0.7+  3.9-)   970201 355  0.1+  0.2+    970714 696  1.6-  0.9-  

860926 691  1.2+  0.7-    970201 900  0.4-  0.2+    970714 696  1.4-  0.9-  

860926 691 (4.4+  3.6-)   970201 900  0.0   0.2-    970714 696 (1.4-  2.7-) 

1988/                     970201 628  0.4+  0.4+    970714 696  1.4-  0.9-  

880909 568 (2.7+  0.5-)   970201 605  1.4+  1.8+    970714 696  1.5-  0.9-  

880909 568  0.1+  0.2+    970201 628  0.2+  0.1-    970714 696  1.4-  0.9-  

880909 568  0.6+  0.0     970201 605  0.6+  1.9+    970714 696  1.4-  1.1-  

881209 568  0.0   0.2+    970202 689  0.1-  0.1-    970719 367  0.3+  0.1-  

881209 568  0.4-  0.1-    970202 026  0.2-  0.8-    970719 367  0.3+  0.1+  

881209 568  0.6-  0.1-    970204 861  0.4-  0.8-    970719 367  0.1-  0.5-  

881209 568  0.0   0.0     970204 861  0.4-  0.4-    970722 367  0.6-  0.1-  

881210 568  0.9+  0.6-    970204 689  0.0   0.0     970722 367  0.3-  0.2-  

881210 568  1.4+  0.5+    970205 861  0.1+  1.1-    970722 367  0.6+  0.2+  

881210 568  0.5+  0.1-    970205 861  0.7-  0.3-    970724 367  0.1+  0.6-  

881211 568  0.1+  1.1-    970205 689  0.0   0.1-    970724 372  1.6-  0.7+  

881211 568  0.8-  0.3-    970206 689  0.3+  0.2-    970724 367  0.5-  0.2-  

1989/                     970206 954  0.7-  1.3-    970724 367  0.9-  0.2-  

890109 807  0.3-  1.4-    970206 118  0.9-  1.0-    970730 360  1.1-  0.1+  

890802 568  0.2-  1.0-    970206 954  0.6-  1.3-    970730 360  0.9-  0.0   

890802 568  1.0-  0.6-    970206 118  0.6-  0.7-    970824 402  1.1-  0.3+  

890802 568  0.8-  1.1-    970207 954  0.7-  1.4-    970824 402  1.5-  0.6+  

890802 568  0.6-  0.8-    970207 689  0.3-  0.3+    970824 402  1.6-  0.5+  

890803 568  0.3-  1.1-    970207 108  0.9+  0.5-    970827 367  0.6-  0.6+  

890803 568  0.8-  0.7-    970207 108  0.0   0.5-    970827 367  0.9-  0.3+  

890910 675 (0.7-  3.8-)   970207 954 (5.7-  5.3-)   970827 367  0.5-  0.4+  

890910 675 (0.7-  3.8-)   970207 954 (4.9-  5.9-)   1998/                   

890910 675 (0.9-  3.7-)   970207 954 (4.1-  5.0-)   980619 696  0.5+  0.6+  

890910 675 (0.7-  3.8-)   970208 689  0.1-  0.3+    980619 696  0.3+  0.6+  

890911 675 (0.7-  3.5-)   970208 108  1.4+  0.9-    980619 696  0.3+  0.5+  

890911 675 (0.7-  3.7-)   970208 108  0.4+  1.4-    980626 568  1.0+  0.8+  

890911 675 (0.6-  3.5-)   970208 954  0.5-  1.3-    980626 568  1.0+  0.7+  

891004 568  1.6-  1.1-    970208 954  0.4-  1.2-    980627 568  0.4+  0.6+  

891004 568  1.7-  1.0-    970209 954  0.4-  1.2-    980627 568  0.2+  0.4+  

891004 568  1.6-  1.5-    970209 473 (2.4+  4.1+)   980627 568  0.4+  0.5+  

1990/                     970209 473 (2.2+  3.5+)   980627 568  0.2+  0.4+  

901019 897 (2.1-  3.4-)   970210 689  0.1-  0.0     980628 568  0.2+  0.8+  

901112 897  2.2-  1.8+    970211 689 (6.1-  0.1+)   980628 568  0.5+  0.7+  

901112 897 (3.0+  0.8-)   970212 689 (4.2-  0.6-)   980628 568  0.6+  0.7+  

901122 412  0.8-  2.1-    970212 711  0.0   0.4-    980702 691  1.0+  0.5-  

901216 897  0.7-  1.8+    970212 711  0.2+  0.3+    980702 691  0.8+  0.9-  

901216 897  2.4-  2.0+    970212 897  0.1+  0.3-    980702 691  0.3+  1.4-  

901219 372  1.8+  0.7+    970212 897  0.2+  0.2-    980702 699  0.5-  1.2-  

901221 372  1.5-  1.4+    970213 711  0.3-  0.3-    980702 699  1.6+  1.5-  

1991/                     970213 711  0.1-  0.2-    980702 699  0.4+  0.5-  

910120 056 (2.8+  0.6-)   970214 689  0.4+  0.5+    980715 691  0.0   1.4+  

910120 056  1.2-  1.0+    970214 605  1.0+  1.8+    980715 691  0.4+  1.0+  

910121 056 (7.7+  5.2-)   970214 605  1.4+  1.3+    980715 691  0.3+  0.9+  

910121 056(10.3+  6.0-)   970214 628  0.1+  0.2-    980727 691  0.0   1.1+  

910122 056 (6.0-  0.7+)   970214 628  0.2+  0.4+    980727 691  0.1-  1.2+  

910122 056  2.0-  1.1-    970215 950  0.3+  0.7-    980802 360  0.5-  0.2+  

910122 897  0.9-  0.1+    970215 950  0.3+  0.8-    980802 360  0.5-  0.6+  

910122 897  2.3-  1.1+    970215 950  0.5+  0.8-    980831 691  0.0   0.6+  

910223 900  1.4+  1.2+    970215 689  0.1+  0.2-    980831 691  0.4-  0.7+  

910223 900 (5.1-  3.1+)   970216 689  0.0   0.2+    980831 691  0.1-  0.4+  

910313 801  0.4-  0.4+    970217 046  0.3+  0.0     980916 693  0.7-  0.2+  

910313 801  0.2-  0.2+    970217 046  0.3+  0.0     980916 693  1.0-  0.2+  

910316 801  0.2-  1.5+    970217 046  0.4+  0.0     980916 693  0.8-  0.0   





  89P/Russell 2 

Epoch 2002 Mar. 27.0 TT = JDT 2452360.5  

T 2002 Mar. 22.91393 TT                                 Nakano

q   2.2900720            (2000.0)            P               Q

n   0.13286818     Peri.  249.21752     +0.35590403     +0.92386384

a   3.8035465      Node    42.48369     -0.76106941     +0.37393625

e   0.3979114      Incl.   12.02786     -0.54231511     +0.08153087

P   7.42

From 38 observations 1980-1995, mean residual 0".82.

Residuals in seconds of arc 

1980/                     870731 323 (3.8+  1.9-)   940516 360  0.6+  0.1+  

800809 413  1.4+  1.6-    870818 323 (1.7+  2.8-)   940516 360  1.3+  0.6+  

800928 413  0.3+  1.6-    870819 474  0.9-  0.8-    940601 360  1.0+  0.1+  

801002 413  1.1+  1.3+    870819 474  0.1-  0.9-    940601 360  1.2+  0.5+  

801003 413  0.8-  0.2+    870828 323 (1.1-  2.9-)   940612 691  0.2-  0.3+  

801006 413  1.1-  0.1+    1994/                     940612 691  0.3-  0.2+  

801006 323 (2.5+  1.3+)   940405 691  0.8-  0.0     940612 691  0.3-  0.4+  

801007 323(11.3+ 12.5-)   940405 691  0.8-  0.3+    940711 360  1.2+  0.2-  

1987/                     940405 691  1.0-  0.9-    940711 360  1.5+  0.3+  

870701 323  0.3-  1.6+    940406 691  0.2-  0.0     1995/                   

870702 323 (0.3+  2.8+)   940406 691  0.5+  0.3+    950826 950  0.4+  0.2+  

870702 323  0.0   0.7-    940406 691  0.6-  0.1-    950826 950  0.1+  0.2+  

870704 413  1.7-  0.2+    940502 691  0.8-  0.0     950826 950  0.1+  0.8+  

870706 323  0.2-  1.6+    940502 691  1.1-  0.1-    950903 691  0.9-  0.9+  

870718 323  0.8+  0.9-    940502 691  0.9-  0.2-    950903 691  1.0-  0.5+  

870724 323  1.8+  0.9-    940516 360  0.7+  0.6+    950903 691  0.9-  0.7+  





  94P/Russell 4 

Epoch 2003 Aug. 29.0 TT = JDT 2452880.5  

T 2003 Aug. 29.23291 TT                                 Nakano

q   2.2311455            (2000.0)            P               Q

n   0.14970413     Peri.   92.94110     -0.95518526     -0.27794242

a   3.5127469      Node    70.93830     +0.21020784     -0.87911774

e   0.3648431      Incl.    6.18484     +0.20840773     -0.38716924

P   6.58

From 138 observations 1984-1997, mean residual 0".72.

Residuals in seconds of arc 

1984/                     891211 675  0.6+  0.3-    970120 402  0.6+  0.0   

840302 413  0.4-  1.8+    891211 675  0.5+  0.1+    970120 402  0.6+  0.1-  

840304 413 (2.4-  0.6-)   891211 675  0.8+  0.2-    970204 360  0.2+  0.2+  

840307 413  0.8-  0.2+    891211 675  0.5+  0.3-    970204 360  0.3+  0.1+  

840310 675  0.2+  0.1-    891212 675  0.8+  0.5+    970220 327  1.3-  0.6+  

840311 675  0.3+  0.4-    891212 675  0.8+  0.3+    970220 327  0.9-  0.5+  

840311 675  0.4+  0.1+    891212 675  1.0+  0.2+    970220 327 (2.5-  1.9+) 

840311 675  0.5+  0.1-    891212 675  1.5+  0.4+    970223 118  0.5-  0.2-  

840311 372  1.5+  0.8-    1995/                     970223 118  0.4-  0.5-  

840312 801 (1.5+ 16.0+)   951021 691  0.1+  0.3-    970301 360  0.0   0.0   

840312 801 (0.6+  3.2+)   951021 691  0.4-  0.6-    970301 360  0.1-  0.0   

840312 675  0.5-  0.9+    951021 691  0.2-  0.8-    970305 118  0.9-  0.7+  

840312 675  0.4-  0.6+    951024 691  0.5-  0.6-    970305 118  0.6-  0.7+  

840321 675  0.1-  1.9-    951024 691  0.1-  0.5-    970311 360  0.4+  0.6+  

840322 675  0.6-  1.9-    951024 691  0.7-  0.7-    970311 360  0.2+  0.5+  

840322 046  1.0-  0.8-    951026 709  1.0-  0.4-    970403 118  0.8-  0.5+  

840323 046  1.1-  1.6+    951026 709  0.1-  0.2+    970403 118  0.8-  0.6+  

840326 372 (6.1-  8.5+)   951026 709  0.1-  0.4-    970407 360  0.3+  0.1-  

840326 323 (3.9-  5.9+)   951026 709  0.5+  0.2-    970407 360  0.2+  0.1+  

840326 552 (1.1+  6.8-)   951026 709  0.3+  0.5-    970410 897  1.0-  0.6+  

840326 552 (2.3+  2.4-)   951026 709  0.1+  0.2-    970410 897  0.1+  0.5+  

840327 801  0.8-  1.3+    951026 709  0.2-  0.6-    970413 620  0.6-  0.2-  

840327 552 (2.7-  2.1-)   951026 709  1.0+  0.2-    970413 620  0.6-  0.1+  

840327 552 (4.6-  4.9-)   951026 709  0.7-  0.1+    970413 620  0.1+  0.6+  

840328 381  0.1-  1.3+    951026 709  1.0-  0.1-    970415 691  0.1+  0.6-  

840329 657 (6.9-  1.2+)   951027 693  0.1-  0.4+    970415 691  0.3+  0.6-  

840329 323  1.4+  0.2-    951027 693  0.7-  0.7+    970415 691  0.3+  0.5-  

840330 657 (2.9+  2.9-)   951027 693  0.2+  1.1+    970424 118  0.8+  0.7-  

840331 657 (5.7-  0.6-)   951222 691  0.2+  0.0     970424 118  0.8+  0.3-  

840331 056 (5.7-  4.2-)   951222 691  0.2+  0.0     970424 046  0.9+  0.2-  

840401 056  1.2-  0.7-    951222 691  0.2+  0.4+    970424 046  0.8+  0.6-  

840402 657 (0.9+  2.1+)   951228 691  0.5+  0.2-    970424 046  1.0+  0.4-  

840403 323  1.2-  0.8-    951228 691  0.1-  0.3-    970425 118  0.7+  0.0   

840403 114  0.4+  0.4+    951228 691  0.6-  0.2-    970425 118  0.9+  0.3-  

840404 801 (9.8+  7.7+)   1996/                     970425 118  0.7+  0.4-  

840404 688  1.0+  1.4-    961113 360  0.3-  0.3+    970425 118  1.0+  0.7-  

840404 688 (1.4-  2.1-)   961113 360  0.1-  0.1-    970425 118  1.1+  1.1-  

840404 114 (3.8+  0.9-)   961113 360  0.5-  0.1-    970425 352  1.9+  0.5-  

840405 707  0.5+  0.8-    961213 867  0.5-  0.6+    970425 352  1.1+  0.6-  

840405 323  0.4-  0.2-    961213 867  0.2-  0.3+    970428 360  0.6+  0.5-  

840405 046 (0.7-  4.0-)   961213 867  0.4-  0.5+    970428 360  0.7+  0.4-  

